Regional Weather Roundup
Issued by NWS Grand Forks, ND

Home | Current Version | Previous Version | Text Only | Print | Product List | Glossary Off
Versions: 1 2 3 4 5 6 7 8 9 10 11 12 13 14 15 16 17 18 19 20 21 22 23 24 25 26 27 28 29 30 31 32 33 34 35 36 37 38 39 40 41 42 43 44 45 46 47 48 49 50

000
ASUS43 KFGF 201910
RWRFGF
PRAIRIE TO PINES  WEATHER ROUNDUP
NATIONAL WEATHER SERVICE EASTERN NORTH DAKOTA/GRAND FORKS ND
100 PM CST SAT DEC 20 2014

 **SATELLITE DATA USED TO AUGMENT SKY COVER AT AUTOMATED STATIONS**
 *****  WEATHER ACROSS EASTERN NORTH DAKOTA  *****

CITY           SKY/WX    TMP DP  RH WIND       PRES   REMARKS
GRAND FORKS    FOG       28  27  96 S14       29.97F VSB 1   WCI  17
GRAND FRKS AFB CLOUDY    27  27 100 SW6       29.97F FOG     WCI  20
GRAND FRKS NWS   N/A     28 N/A N/A S18         N/A  WCI  16
DEVILS LAKE    CLOUDY    25  18  74 S6        29.88F VSB 1/2 WCI  18
FARGO          CLOUDY    32  28  85 S13       29.99F FOG     WCI  22
WAHPETON ARPT  CLOUDY    30  28  93 S9        30.01F WCI  22
$$

 ***** WEATHER ACROSS CENTRAL AND WESTERN NORTH DAKOTA  *****

CITY           SKY/WX    TMP DP  RH WIND       PRES   REMARKS
BISMARCK       CLOUDY    24  23  96 SE5       29.87F WCI  18
MINOT          CLOUDY    23  20  88 SE3       29.82F FOG
JAMESTOWN      CLOUDY    28  25  88 S12       29.91F FOG     WCI  18
MINOT AFB      CLOUDY    23  23 100 SE5       29.82F WCI  17
GARRISON         N/A     29  25  85 SW6       29.84S WCI  23
WILLISTON      SUNNY     32  29  88 S8        29.80F WCI  25
DICKINSON      SUNNY     45  31  58 W14       29.81F
HETTINGER      MOSUNNY   44  30  57 W14       29.86F
$$

 *****  OTHER AIRPORT OBSERVATIONS IN OUR AREA  *****

CITY           SKY/WX    TMP DP  RH WIND       PRES   REMARKS
WALHALLA         N/A     27  27 100 S7        29.94F WCI  19
GRAFTON AIRPOR NOT AVBL
VALLEY CITY AR FOG       27  27 100 MISG      29.93F VSB 1/2
CANDO          FOG       25  23  93 S7        29.89F VSB<1/4 WCI  17
CAVALIER APRT  CLOUDY    27  27 100 SW13      29.95F FOG     WCI  16
GWINNER        CLOUDY    30  30 100 MISG      29.98F
SHEYENNE NWR     N/A     29  27  94 S7        29.95  WCI  22
ROLLA          FOG       23  23 100 S8        29.86F VSB<1/4 WCI  14
 ***** THE ABOVE OBSERVATIONS ARE NON NWS ARE NOT QUALITY
       CONTROLLED AND MAY MIS-REPORT RAIN FOR SNOW...
$$

  *****  WEATHER ACROSS NORTHERN MINNESOTA  *****

CITY           SKY/WX    TMP DP  RH WIND       PRES   REMARKS
FLAG ISLAND    CLOUDY    28  27  93 S8        29.97F FOG     WCI  20
WARROAD        CLOUDY    28  25  86 S7        29.98F WCI  21
ROSEAU         CLOUDY    30  25  80 S14       29.97F WCI  20
HALLOCK        CLOUDY    28  27  93 CALM      29.96F FOG
THF RVR FALLS  CLOUDY    28  28 100 S9        29.98F WCI  20
BAUDETTE       CLOUDY    31  28  89 S9        29.98F WCI  23
WASKISH        CLOUDY    30  30 100 CALM      30.00F FOG
CROOKSTON      CLOUDY    28  28 100 SW13      30.00F FOG     WCI  18
STEPHEN NDAWN    N/A     28  27  93 S12         N/A  WCI  18
GREENBUSH NDAW   N/A     28  28 100 S1          N/A
$$
  *****  WEATHER ACROSS CENTRAL AND WEST MINNESOTA  *****

CITY           SKY/WX    TMP DP  RH WIND       PRES   REMARKS
FOSSTON        CLOUDY    27  27 100 S12       29.99F FOG     WCI  16
BEMIDJI          N/A     29  28  96 S6        30.00S FOG     WCI  23
PARK RAPIDS    CLOUDY    30  27  88 S14       30.00F FOG     WCI  19
ELBOW LAKE     CLOUDY    30  28  93 S12       30.01F FOG     WCI  21
WADENA         CLOUDY    28  27  93 S12G17    30.02S FOG     WCI  18
DETROIT LAKES  CLOUDY    30  30 100 S9        30.00F FOG     WCI  22
MOORHEAD       CLOUDY    30  30 100 S10       30.01F FOG     WCI  21
FERGUS FALLS   CLOUDY    30  28  93 S14       30.04F FOG     WCI  20
MORRIS MN      SUNNY     32  28  86 S12       30.01F FOG     WCI  23
STAPLES        CLOUDY    28  27  93 S13       30.03F FOG     WCI  18
$$
  *****  WEATHER ELSEWHERE ACROSS MINNESOTA  *****

CITY           SKY/WX    TMP DP  RH WIND       PRES   REMARKS
DULUTH         CLOUDY    29  25  85 S10       30.07F FOG     WCI  20
INTRNTL FALLS  CLOUDY    29  27  92 S5        30.01F FOG     WCI  24
ELY            CLOUDY    28  27  93 S6        30.05F WCI  22
CLOQUET        CLOUDY    30  27  86 S3        30.07F FOG
WHEATON        CLOUDY    28  27  93 S12       30.04S FOG     WCI  18
BRAINERD       CLOUDY    29  26  89 S16       30.05F FOG     WCI  17
HIBBING        CLOUDY    30  26  85 S8        30.04F WCI  22
ALEXANDRIA     CLOUDY    30  28  92 S13       30.03F FOG     WCI  20
SAINT CLOUD    CLOUDY    32  26  78 S10       30.08F WCI  24
MINNEAPOLIS    CLOUDY    32  26  78 S10       30.13F WCI  24
$$

  *****  WEATHER ACROSS SOUTH DAKOTA  *****

CITY           SKY/WX    TMP DP  RH WIND       PRES   REMARKS
SIOUX FALLS    CLOUDY    32  30  92 S9        30.03F WCI  24
BROOKINGS      NOT AVBL
WATERTOWN      CLOUDY    30  28  92 S13       29.98F FOG     WCI  20
HURON          CLOUDY    27  26  96 S10       29.99F FOG     WCI  17
SISSETON         N/A     31  28  89 SW13      29.99F WCI  21
ABERDEEN       CLOUDY    27  25  92 S9        29.99S FOG     WCI  18
MITCHELL       CLOUDY    30  30 100 S9        30.02F FOG     WCI  22
PIERRE         CLOUDY    26  22  84 SE6       29.92F WCI  19
MOBRIDGE       CLOUDY    29  26  89 SE10      29.87F WCI  20
RAPID CITY     CLOUDY    49  28  44 N13       29.90F
$$

  *****  SOME WEATHER IN NEARBY STATES *****

CITY           SKY/WX    TMP DP  RH WIND       PRES   REMARKS
GLASGOW MT     SUNNY     43  25  49 W17       29.79F
GREAT FALLS MT CLOUDY    40  22  48 SW15G23   29.81F
CHEYENNE WY    PTSUNNY   45  19  35 W22G32    29.99F
SCOTTSBLUFF NE PTSUNNY   41  29  62 W8        29.96F
OMAHA NE       CLOUDY    34  32  92 S10       30.09F FOG
DES MOINES IA  CLOUDY    34  31  88 SE7       30.14F FOG
DAVENPORT IA   CLOUDY    33  25  72 S9        30.22F
CHICAGO IL     CLOUDY    32  23  69 W8        30.24F WCI  25
EAU CLAIRE WI  CLOUDY    32  25  75 S7        30.16F
LA CROSSE WI   CLOUDY    33  26  75 S5        30.19F
$$

  *****  SOME NATIONAL WEATHER *****

CITY           SKY/WX    TMP DP  RH WIND       PRES   REMARKS
LA GUARDIA NY  CLOUDY    32  20  61 CALM      30.26S
RALEIGH NC     CLOUDY    37  32  82 NE5       30.24F
ATLANTA GA     CLOUDY    50  45  83 N7        30.15F
NEW ORLEANS LA CLOUDY    53  48  83 N14       30.11F
OKLAHOMA CITY  CLOUDY    45  37  73 S13       30.17F
ALBUQUERQUE NM PTSUNNY   39  25  57 NW5       30.15F
SALT LAKE CITY LGT RAIN  42  33  70 SW3       30.10F
LOS ANGELES CA CLOUDY    61  50  67 NE3       30.19F
BOISE ID       CLOUDY    43  38  82 SE13      29.98F
SEATTLE WA     LGT RAIN  46  43  89 E10       29.62F FOG
$$

*** WEATHER ACROSS MANITOBA...SASKATCHEWAN AND ONTARIO ***
                ***ONTARIO***

CITY           SKY/WX    TMP DP  RH WIND       PRES   REMARKS
GERALDTON      CLOUDY    25  23  93 S7        30.14F WCI  17
THUNDER BAY    NOT AVBL
SIOUX LOOKOUT  FLURRIES  27  23  86 S7        30.02F WCI  19
TORONTO        MOSUNNY   32  16  51 N3        30.25S
BIG TROUT LK   CLOUDY    21  19  93 SE5       30.07F WCI  15
PICKLE LAKE    FLURRIES  23  19  86 S6        30.04F WCI  16
DRYDEN         CLOUDY    27  25  93 S9        30.00F FOG     WCI  17
KENORA         FRZ DRZL  27  27 100 S7        29.97F VSB 3/4 WCI  19
$$
                *** MANITOBA***

CITY           SKY/WX    TMP DP  RH WIND       PRES   REMARKS
BRANDON        CLOUDY    25  23  93 S9        29.88F WCI  15
DAUPHIN        CLOUDY    25  21  86 SE5       29.87F WCI  19
ISLAND LAKE    FLURRIES  21  19  93 SE6       29.98F WCI  14
PILOT MOUND    NOT AVBL
THE PAS        LGT SNOW  18  18 100 S13G21    29.87F FOG     WCI   4
THOMPSON       FLURRIES  16  14  93 SW8       29.93F WCI   5
WINNIPEG       CLOUDY    27  25  93 SW7       29.94F WCI  19
LYNN LAKE      CLOUDY    16  14  93 S7        29.81F WCI   6
GILLAM         FLURRIES  18  16  93 S7        30.00F WCI   8
$$
                ***SASKATCHEWAN***

CITY           SKY/WX    TMP DP  RH WIND       PRES   REMARKS
ESTEVAN        LGT SNOW  27  25  93 SE8       29.77F FOG     WCI  18
KINDERSLEY     MOSUNNY   21  19  93 SW6       29.69F WCI  14
LLOYDMINSTER   PTSUNNY   19  18  93 CALM      29.66F
PRINCE ALBERT  LGT SNOW  19  18  93 E8        29.74F FOG     WCI   9
REGINA         NOT AVBL
YORKTON        CLOUDY    21  19  93 S9        29.78F FOG     WCI  11
N. BATTLEFORD  CLOUDY    19  18  93 S3        29.72F
LA RONGE       NOT AVBL
SASKATOON      LGT SNOW  21  19  93 VRB2      29.71F FOG
SWIFT CURRENT  NOT AVBL
$$
NOTE: THESE ARE AUTOMATED STATIONS WITH LIMITED QUALITY CONTROL
      "FAIR" INDICATES FEW OR NO CLOUDS BELOW 12,000 FEET WITH NO
      SIGNIFICANT WEATHER AND/OR OBSTRUCTIONS TO VISIBILITY.
      SKY/WX - SKY CONDITION AND SIGNIFICANT WEATHER.
      TMP - AIR TEMPERATURE.    DP   - DEWPOINT TEMPERATURE.
      RH  - RELATIVE HUMIDITY.  PRES - PRESSURE.
      HX  - HEAT INDEX.         WCI  - WIND CHILL INDEX.
$


USA.gov is the U.S. government's official web portal to all federal, state and local government web resources and services.